DW9924 Weather Reports


Display with metric or nautical units.
time (UTC)temp
F
wind
direction
speed
MPH
gust
MPH
rain 1hr
in
rain 24hr
in
rain mn
in
humidity
%
barometer
mb
20260504004407 60 19 2.0 3.0 0.00 0.00 0.00 55 1018.7
20260504003906 60 25 2.0 2.0 0.00 0.00 0.00 55 1018.7
20260504003411 60 27 2.0 3.0 0.00 0.00 0.00 54 1018.7
20260504001906 61 4 1.0 2.0 0.00 0.00 0.00 52 1018.7
20260504000408 61 43 2.0 3.0 0.00 0.00 0.00 51 1018.7
20260503234908 62 32 2.0 3.0 0.00 0.00 0.00 47 1018.7
20260503234406 62 26 1.0 3.0 0.00 0.00 0.00 47 1018.7
20260503233906 62 58 2.0 3.0 0.00 0.00 0.00 46 1018.7
20260503231906 61 70 2.0 3.0 0.00 0.00 0.00 46 1018.9
20260503231406 61 28 2.0 3.0 0.00 0.00 0.00 48 1018.9
20260503230907 61 33 1.0 3.0 0.00 0.00 0.00 48 1019.1
20260503230409 60 78 1.0 3.0 0.00 0.00 0.00 50 1019.1
20260503223907 61 8 1.0 2.0 0.00 0.00 0.00 53 1019.3
20260503223406 61 20 1.0 5.0 0.00 0.00 0.00 54 1019.5
20260503221407 60 29 2.0 5.0 0.00 0.00 0.00 56 1019.4
20260503220910 60 21 2.0 3.0 0.00 0.00 0.00 56 1019.4
20260503220406 60 21 2.0 3.0 0.00 0.00 0.00 55 1019.5
20260503214406 60 30 1.0 3.0 0.00 0.00 0.00 56 1019.4
20260503213906 59 39 2.0 3.0 0.00 0.00 0.00 57 1019.4
20260503213406 59 31 2.0 3.0 0.00 0.00 0.00 61 1019.4
20260503211906 59 34 2.0 3.0 0.00 0.00 0.00 65 1019.4
20260503211406 59 33 1.0 3.0 0.00 0.00 0.00 66 1019.4
20260503210406 60 45 2.0 3.0 0.00 0.00 0.00 67 1019.5
20260503204906 59 26 1.0 2.0 0.00 0.00 0.00 67 1019.4
20260503204406 59 11 2.0 3.0 0.00 0.00 0.00 67 1019.4
20260503203906 60 93 1.0 3.0 0.00 0.00 0.00 67 1019.4
20260503201911 60 38 2.0 3.0 0.00 0.00 0.00 65 1019.4
20260503201408 60 42 2.0 3.0 0.00 0.00 0.00 65 1019.3
20260503200906 60 36 2.0 3.0 0.00 0.00 0.00 66 1019.2
20260503200408 60 36 2.0 3.0 0.00 0.00 0.00 66 1019.3
20260503194906 59 30 1.0 3.0 0.00 0.00 0.00 68 1019.2
20260503194409 59 26 2.0 3.0 0.00 0.00 0.00 68 1019.3
20260503193407 60 32 2.0 3.0 0.00 0.00 0.00 67 1019.2
20260503191921 60 35 2.0 3.0 0.00 0.00 0.00 67 1019.0
20260503190907 60 33 2.0 2.0 0.00 0.00 0.00 67 1018.9
20260503190405 60 33 1.0 3.0 0.00 0.00 0.00 67 1018.8
20260503183911 61 39 2.0 3.0 0.00 0.00 0.00 66 1018.8
20260503183406 62 31 1.0 3.0 0.00 0.00 0.00 66 1018.8
20260503181406 63 40 1.0 2.0 0.00 0.00 0.00 64 1018.7
20260503180406 64 355 1.0 2.0 0.00 0.00 0.00 62 1018.7
20260503174406 64 214 0.0 0.0 0.00 0.00 0.00 60 1018.7
20260503173906 64 214 0.0 0.0 0.00 0.00 0.00 59 1018.7
20260503173405 64 214 0.0 2.0 0.00 0.00 0.00 59 1018.6
20260503171905 65 214 0.0 1.0 0.00 0.00 0.00 61 1018.9
20260503171406 65 214 1.0 1.0 0.00 0.00 0.00 60 1018.9
20260503170905 65 214 0.0 0.0 0.00 0.00 0.00 59 1019.0
20260503170407 65 214 0.0 3.0 0.00 0.00 0.00 60 1019.0
20260503150405 69 227 0.0 3.0 0.00 0.00 0.00 64 1019.1
20260503130906 68 183 1.0 5.0 0.00 0.00 0.00 66 1020.7
20260503110405 67 237 2.0 7.0 0.00 0.00 0.00 67 1021.5
20260503090404 66 214 1.0 3.0 0.00 0.00 0.00 68 1021.3
20260503080905 64 207 0.0 2.0 0.00 0.00 0.00 61 1021.1
20260503080404 64 201 1.0 3.0 0.00 0.00 0.00 59 1021.0
20260503071904 66 171 0.0 1.0 0.00 0.00 0.00 59 1021.0
20260503071404 65 171 0.0 1.0 0.00 0.00 0.00 60 1021.1
20260503070404 64 171 0.0 1.0 0.00 0.00 0.00 62 1021.0
20260503054904 60 32 1.0 1.0 0.00 0.00 0.00 67 1021.0
20260503054404 60 33 1.0 2.0 0.00 0.00 0.00 66 1020.9
20260503053904 59 31 1.0 1.0 0.00 0.00 0.00 65 1020.9
20260503053404 59 30 1.0 2.0 0.00 0.00 0.00 65 1020.9
20260503051905 59 33 1.0 2.0 0.00 0.00 0.00 59 1020.7
20260503051404 59 25 1.0 2.0 0.00 0.00 0.00 59 1020.6
20260503050904 59 17 2.0 3.0 0.00 0.00 0.00 55 1020.5
20260503050405 59 26 2.0 3.0 0.00 0.00 0.00 59 1020.5
20260503044906 58 34 2.0 3.0 0.00 0.00 0.00 53 1020.4
20260503044404 58 35 2.0 3.0 0.00 0.00 0.00 52 1020.4
20260503043904 58 24 1.0 3.0 0.00 0.00 0.00 50 1020.5
20260503041905 58 47 2.0 3.0 0.00 0.00 0.00 50 1020.4
20260503041404 58 54 2.0 3.0 0.00 0.00 0.00 49 1020.5
20260503040904 58 64 1.0 3.0 0.00 0.00 0.00 46 1020.4
20260503040404 58 36 2.0 3.0 0.00 0.00 0.00 46 1020.3
20260503034904 58 27 2.0 3.0 0.00 0.00 0.00 45 1020.4
20260503034404 58 30 2.0 3.0 0.00 0.00 0.00 45 1020.4
20260503033904 58 31 2.0 3.0 0.00 0.00 0.00 45 1020.4
20260503033406 58 49 2.0 3.0 0.00 0.00 0.00 45 1020.4
20260503031904 58 49 2.0 3.0 0.00 0.00 0.00 46 1020.5
20260503030904 58 27 2.0 3.0 0.00 0.00 0.00 46 1020.5
20260503030404 58 35 2.0 3.0 0.00 0.00 0.00 47 1020.5
20260503024904 58 28 2.0 3.0 0.00 0.00 0.00 47 1020.6
20260503024403 59 26 2.0 3.0 0.00 0.00 0.00 46 1020.7
20260503023904 59 39 2.0 3.0 0.00 0.00 0.00 46 1020.7
20260503023405 59 32 2.0 3.0 0.00 0.00 0.00 45 1020.8
20260503021904 58 40 2.0 3.0 0.00 0.00 0.00 47 1020.9
20260503021404 58 39 2.0 3.0 0.00 0.00 0.00 48 1020.8
20260503020904 58 37 2.0 3.0 0.00 0.00 0.00 48 1020.7
20260503020405 58 33 2.0 3.0 0.00 0.00 0.00 48 1020.8
20260503014903 58 33 2.0 3.0 0.00 0.00 0.00 48 1020.8
20260503014404 58 42 2.0 3.0 0.00 0.00 0.00 49 1020.8
20260503011904 58 38 2.0 3.0 0.00 0.00 0.00 48 1020.9
20260503011405 58 43 2.0 3.0 0.00 0.00 0.00 48 1021.0
20260503004905 58 35 2.0 3.0 0.00 0.00 0.00 49 1021.0